TimeCST,TemperatureF,Dew PointF,Humidity,Sea Level PressureIn,VisibilityMPH,Wind Direction,Wind SpeedMPH,Gust SpeedMPH,PrecipitationIn,Events,Conditions,WindDirDegrees,DateUTC
12:15 AM,24.8,19.4,80,30.29,10.0,NE,4.6,-,N/A,,Clear,50,2011-11-21 06:15:00
12:35 AM,24.8,19.4,80,30.28,10.0,ENE,4.6,-,N/A,,Clear,70,2011-11-21 06:35:00
1:15 AM,24.8,19.4,80,30.28,10.0,Calm,Calm,-,N/A,,Clear,0,2011-11-21 07:15:00
1:35 AM,23.0,17.6,80,30.28,10.0,Calm,Calm,-,N/A,,Clear,0,2011-11-21 07:35:00
1:55 AM,24.8,19.4,80,30.28,10.0,East,3.5,-,N/A,,Clear,80,2011-11-21 07:55:00
2:35 AM,23.0,17.6,80,30.27,10.0,ENE,4.6,-,N/A,,Clear,70,2011-11-21 08:35:00
2:55 AM,24.8,19.4,80,30.27,10.0,East,4.6,-,N/A,,Clear,80,2011-11-21 08:55:00
3:15 AM,23.0,17.6,80,30.27,10.0,East,4.6,-,N/A,,Clear,90,2011-11-21 09:15:00
3:35 AM,24.8,19.4,80,30.27,10.0,ENE,4.6,-,N/A,,Clear,70,2011-11-21 09:35:00
3:55 AM,24.8,19.4,80,30.27,10.0,East,5.8,-,N/A,,Clear,80,2011-11-21 09:55:00
4:15 AM,23.0,17.6,80,30.27,10.0,East,4.6,-,N/A,,Clear,100,2011-11-21 10:15:00
4:35 AM,24.8,19.4,80,30.27,10.0,East,5.8,-,N/A,,Clear,100,2011-11-21 10:35:00
4:55 AM,23.0,17.6,80,30.26,10.0,East,4.6,-,N/A,,Clear,90,2011-11-21 10:55:00
5:15 AM,24.8,19.4,80,30.27,10.0,East,4.6,-,N/A,,Clear,80,2011-11-21 11:15:00
5:35 AM,23.0,17.6,80,30.27,7.0,NE,3.5,-,N/A,,Clear,50,2011-11-21 11:35:00
5:55 AM,23.0,17.6,80,30.28,7.0,ENE,4.6,-,N/A,,Clear,70,2011-11-21 11:55:00
6:15 AM,21.2,17.6,86,30.29,7.0,NNE,5.8,-,N/A,,Scattered Clouds,20,2011-11-21 12:15:00
6:35 AM,24.8,19.4,80,30.29,10.0,Calm,Calm,-,N/A,,Overcast,0,2011-11-21 12:35:00
6:55 AM,24.8,19.4,80,30.30,7.0,ENE,3.5,-,N/A,,Overcast,60,2011-11-21 12:55:00
7:15 AM,26.6,21.2,80,30.29,7.0,East,5.8,-,N/A,,Overcast,80,2011-11-21 13:15:00
7:35 AM,26.6,21.2,80,30.29,7.0,East,5.8,-,N/A,,Overcast,80,2011-11-21 13:35:00
7:55 AM,28.4,21.2,74,30.29,7.0,ESE,5.8,-,N/A,,Overcast,110,2011-11-21 13:55:00
8:15 AM,28.4,23.0,80,30.29,7.0,ESE,4.6,-,N/A,,Overcast,120,2011-11-21 14:15:00
8:35 AM,30.2,24.8,80,30.28,7.0,SE,6.9,-,N/A,,Overcast,130,2011-11-21 14:35:00
8:55 AM,30.2,26.6,86,30.28,7.0,ESE,6.9,-,N/A,,Overcast,120,2011-11-21 14:55:00
9:35 AM,33.8,26.6,75,30.28,7.0,East,5.8,-,N/A,,Overcast,100,2011-11-21 15:35:00
9:55 AM,33.8,28.4,81,30.28,7.0,SE,5.8,-,N/A,,Overcast,130,2011-11-21 15:55:00
10:15 AM,33.8,28.4,81,30.29,7.0,ESE,5.8,-,N/A,,Overcast,120,2011-11-21 16:15:00
10:35 AM,35.6,28.4,75,30.29,7.0,ESE,6.9,-,N/A,,Overcast,110,2011-11-21 16:35:00
10:55 AM,35.6,28.4,75,30.27,10.0,ESE,6.9,-,N/A,,Overcast,110,2011-11-21 16:55:00
11:15 AM,35.6,28.4,75,30.27,10.0,ESE,6.9,-,N/A,,Overcast,120,2011-11-21 17:15:00
11:35 AM,35.6,30.2,81,30.27,10.0,ESE,3.5,-,N/A,,Overcast,120,2011-11-21 17:35:00
12:15 PM,37.4,30.2,75,30.25,10.0,SE,4.6,-,N/A,,Overcast,130,2011-11-21 18:15:00
12:35 PM,37.4,30.2,75,30.23,10.0,ESE,5.8,-,N/A,,Overcast,110,2011-11-21 18:35:00
12:55 PM,37.4,30.2,75,30.23,10.0,ESE,4.6,-,N/A,,Overcast,120,2011-11-21 18:55:00
1:15 PM,39.2,30.2,70,30.22,10.0,East,5.8,-,N/A,,Overcast,100,2011-11-21 19:15:00
1:35 PM,39.2,30.2,70,30.21,10.0,East,4.6,-,N/A,,Overcast,90,2011-11-21 19:35:00
2:15 PM,39.2,30.2,70,30.19,10.0,East,6.9,-,N/A,,Overcast,90,2011-11-21 20:15:00
2:35 PM,39.2,30.2,70,30.19,10.0,East,8.1,-,N/A,,Overcast,80,2011-11-21 20:35:00
2:55 PM,39.2,30.2,70,30.18,10.0,ENE,6.9,-,N/A,,Overcast,70,2011-11-21 20:55:00
3:35 PM,39.2,30.2,70,30.18,10.0,ENE,6.9,-,N/A,,Overcast,70,2011-11-21 21:35:00
3:55 PM,39.2,30.2,70,30.19,10.0,East,8.1,-,N/A,,Overcast,80,2011-11-21 21:55:00
4:15 PM,39.2,30.2,70,30.18,10.0,ENE,9.2,-,N/A,,Overcast,70,2011-11-21 22:15:00
4:55 PM,37.4,28.4,70,30.19,10.0,ENE,8.1,-,N/A,,Mostly Cloudy,60,2011-11-21 22:55:00
5:15 PM,35.6,28.4,75,30.21,10.0,ENE,5.8,-,N/A,,Scattered Clouds,60,2011-11-21 23:15:00
5:35 PM,35.6,28.4,75,30.20,10.0,ENE,6.9,-,N/A,,Scattered Clouds,70,2011-11-21 23:35:00
5:55 PM,35.6,28.4,75,30.20,10.0,ENE,8.1,-,N/A,,Mostly Cloudy,70,2011-11-21 23:55:00
6:15 PM,35.6,28.4,75,30.20,10.0,ENE,8.1,-,N/A,,Overcast,70,2011-11-22 00:15:00
6:35 PM,35.6,28.4,75,30.20,10.0,ENE,8.1,-,N/A,,Overcast,60,2011-11-22 00:35:00
6:55 PM,35.6,28.4,75,30.19,10.0,ENE,8.1,-,N/A,,Overcast,70,2011-11-22 00:55:00
7:15 PM,35.6,28.4,75,30.19,10.0,ENE,6.9,-,N/A,,Overcast,70,2011-11-22 01:15:00
7:35 PM,35.6,28.4,75,30.19,10.0,ENE,6.9,-,N/A,,Overcast,70,2011-11-22 01:35:00
7:55 PM,35.6,28.4,75,30.17,10.0,ENE,8.1,-,N/A,,Overcast,60,2011-11-22 01:55:00
8:15 PM,35.6,28.4,75,30.16,10.0,ENE,8.1,-,N/A,,Overcast,60,2011-11-22 02:15:00
8:35 PM,35.6,28.4,75,30.16,10.0,ENE,6.9,-,N/A,,Overcast,60,2011-11-22 02:35:00
8:55 PM,35.6,28.4,75,30.16,10.0,NE,8.1,-,N/A,,Overcast,50,2011-11-22 02:55:00
9:35 PM,35.6,28.4,75,30.16,10.0,ENE,6.9,-,N/A,,Overcast,70,2011-11-22 03:35:00
9:55 PM,35.6,28.4,75,30.17,10.0,East,6.9,-,N/A,,Overcast,80,2011-11-22 03:55:00
10:15 PM,35.6,28.4,75,30.18,10.0,East,6.9,-,N/A,,Overcast,80,2011-11-22 04:15:00
10:35 PM,35.6,28.4,75,30.18,10.0,East,4.6,-,N/A,,Overcast,80,2011-11-22 04:35:00
10:55 PM,35.6,28.4,75,30.18,10.0,ENE,5.8,-,N/A,,Overcast,70,2011-11-22 04:55:00
11:15 PM,35.6,28.4,75,30.18,10.0,East,6.9,-,N/A,,Overcast,80,2011-11-22 05:15:00
11:35 PM,35.6,28.4,75,30.18,10.0,East,6.9,-,N/A,,Overcast,100,2011-11-22 05:35:00
11:55 PM,35.6,28.4,75,30.19,10.0,East,6.9,-,N/A,,Overcast,90,2011-11-22 05:55:00